Regional Weather Roundup
Issued by NWS Green Bay, WI

Home | Current Version | Previous Version | Graphics & Text | Print | Product List | Glossary Off
Versions: 1 2 3 4 5 6 7 8 9 10 11 12 13 14 15 16 17 18 19 20 21 22 23 24 25 26 27 28 29 30 31 32 33 34 35 36 37 38 39 40 41 42 43 44 45 46 47 48 49 50

644
ASUS43 KGRB 230300
RWRGRB

NORTH-CENTRAL AND NORTHEAST WISCONSIN REGIONAL WEATHER ROUNDUP
NATIONAL WEATHER SERVICE GREEN BAY WI
1000 PM CDT SUN OCT 22 2017

WIZ005-009-010>012-018-019-230400-
NORTH CENTRAL WISCONSIN

CITY           SKY/WX    TMP DP  RH WIND       PRES   REMARKS
IRONWOOD       CLEAR     46  39  76 S10       29.93F
MANITOWISH WTR NOT AVBL
ARBOR VITAE    NOT AVBL
EAGLE RIVER    NOT AVBL
LAND O LAKES   NOT AVBL
RHINELANDER    CLEAR     42  41  96 S6        29.99F
PHILLIPS       NOT AVBL
ANTIGO         NOT AVBL
TOMAHAWK       NOT AVBL
MERRILL        NOT AVBL
$$

WIZ013-073-230400-
NORTHEAST WISCONSIN

CITY           SKY/WX    TMP DP  RH WIND       PRES   REMARKS
IRON MOUNTAIN  CLOUDY    45  43  93 S3        29.99S
MARINETTE      PTCLDY    48  47  96 W3        30.03
$$

WIZ017-030-035>037-045-230400-
CENTRAL WISCONSIN

CITY           SKY/WX    TMP DP  RH WIND       PRES   REMARKS
MEDFORD        NOT AVBL
WAUSAU         CLOUDY    44  43  96 SE5       30.00S
MOSINEE        CLEAR     43  43 100 S5        30.02S
MARSHFIELD     CLOUDY    43  41  93 S3        30.00S
WISC RAPIDS    PTCLDY    43  42  97 S3        30.03S
STEVENS POINT  NOT AVBL
WAUPACA        NOT AVBL
SHAWANO        NOT AVBL
CLINTONVILLE   NOT AVBL
WAUTOMA        FOG      N/A N/A N/A CALM      30.04F VSB 1/2
$$

WIZ038-039-048-051-230400-
FOX VALLEY

CITY           SKY/WX    TMP DP  RH WIND       PRES   REMARKS
NWS GREEN BAY  PTCLDY    49  49 100 CALM      30.03F
APPLETON       PTCLDY    48  48 100 CALM      30.02F
OSHKOSH        CLOUDY    48  47  96 CALM      30.03S
FOND DU LAC    CLOUDY    50  46  86 CALM      30.03F
$$

WIZ022-050-052-230400-
EAST CENTRAL WISCONSIN

CITY           SKY/WX    TMP DP  RH WIND       PRES   REMARKS
EPHRAIM        NOT AVBL
WASHINGTON ISL NOT AVBL
STURGEON BAY   CLOUDY    50  48  93 SW5       30.03F
MANITOWOC      CLOUDY    50  49  96 W3        30.04S
SHEBOYGAN      LGT RAIN  50  50 100 W3        30.03F
$$

LMZ563-521-522-541>543-230400-
LAKESHORE

STATION/POSITION TIME  TEMP    WIND        PRES    VSBY  WAVE
                       AIR SEA DIR/SP/G                  HT/PER
                 (UTC) (F)     (DEG/KT/KT) (MB)    (MI)  (FT/S)
SHEBOYGAN LKSHOR 0200   51     270/  4/  5 1017.3S
KEWAUNEE LKSHORE 0230   50     300/  3/  4 1015.7F
NORTHPORT PIER   0240   51     240/  2/  5 1016.3F
N MID LAKE BUOY  0150   52 57  220/  6/  6 1017.0F         3/ 6
S GREEN BAY BUOY 0230   53 58  250/ 10/ 12 1016.4F
SISTER BAY LKSHO 0219   51     290/  9/ 10   N/A
MENOMINEE LKSHOR 0230   50     240/  5/  9 1016.1F
$$




USA.gov is the U.S. government's official web portal to all federal, state and local government web resources and services.